Weather History for KMTH - January, 2014

Change the Weather History Date:

Thursday, January 16, 2014

  Actual Average Record
Temperature  
Mean Temperature 63 °F 69 °F  
Max Temperature 69 °F 75 °F 83 °F (2007)
Min Temperature 56 °F 64 °F 54 °F (2006)
Degree Days  
Heating Degree Days 2 1  
Month to date heating degree days 13 25  
Since 1 July heating degree days 14 46  
Cooling Degree Days 0 6  
Month to date cooling degree days 128 96  
Year to date cooling degree days 128 96  
Growing Degree Days 13 (Base 50)    
Moisture  
Dew Point 49 °F    
Average Humidity 63    
Maximum Humidity 78    
Minimum Humidity 47    
Precipitation  
Precipitation T in 0.04 in 0.04 in (2005)
Month to date precipitation 0.45 0.84  
Year to date precipitation 0.45 0.84  
Snow  
Snow 0.00 in - - ()
Month to date snowfall 0.0  
Since 1 July snowfall 0.0  
Snow Depth 0.00 in    
Sea Level Pressure  
Sea Level Pressure 30.09 in    
Wind  
Wind Speed 14 mph (NNW)    
Max Wind Speed 24 mph    
Max Gust Speed 32 mph    
Visibility 10 miles    
Events      
T = Trace of Precipitation, MM = Missing Value Source: NWS Daily Summary

Daily Weather History Graph

Daily Weather History Graph

Search for Another Location

Airport or City:

Trip Planner

Search our weather history database for the weather conditions in past years. The results will help you decide how hot, cold, wet, or windy it might be!

Date:

Astronomy

Jan. 16, 2014 Rise Set
Actual Time 7:10 AM EST 5:57 PM EST
Civil Twilight 6:46 AM EST 6:22 PM EST
Nautical Twilight 6:18 AM EST 6:50 PM EST
Astronomical Twilight 5:50 AM EST 7:17 PM EST
Moon 6:37 PM EST (1/16) 7:11 AM EST (1/16)
Length of Visible Light 11h 36m
Length of Day
10h 47m
Full, 100% of the Moon is Illuminated
Jan 16
Full
Jan 24
Last Quarter
Jan 30
New
Feb 6
First Quarter
Feb 14
Full

Hourly Weather History & Observations

Time (EST) Temp. Dew Point Humidity Pressure Visibility Wind Dir Wind Speed Gust Speed Precip Events Conditions
12:53 AM 68.0 °F 55.9 °F 65% 30.01 in 10.0 mi WNW 10.4 mph - N/A   Scattered Clouds
1:53 AM 68.0 °F 55.0 °F 63% 29.99 in 10.0 mi WNW 6.9 mph - N/A   Clear
2:53 AM 68.0 °F 55.0 °F 63% 30.00 in 10.0 mi West 8.1 mph - N/A   Clear
3:53 AM 69.1 °F 54.0 °F 58% 29.99 in 10.0 mi West 8.1 mph - N/A   Clear
4:53 AM 68.0 °F 59.0 °F 73% 30.00 in 10.0 mi NW 15.0 mph 25.3 mph N/A   Mostly Cloudy
5:53 AM 66.0 °F 57.0 °F 73% 30.00 in 10.0 mi NW 18.4 mph 28.8 mph 0.00 in   Overcast
6:53 AM 64.0 °F 55.0 °F 73% 30.03 in 10.0 mi NNW 18.4 mph 26.5 mph N/A   Scattered Clouds
7:40 AM 63.0 °F 55.9 °F 78% 30.03 in 10.0 mi North 16.1 mph 24.2 mph N/A   Mostly Cloudy
7:53 AM 62.1 °F 55.0 °F 78% 30.05 in 10.0 mi North 15.0 mph 21.9 mph N/A   Overcast
8:53 AM 61.0 °F 53.1 °F 75% 30.08 in 10.0 mi NNE 15.0 mph 21.9 mph N/A   Overcast
9:53 AM 60.1 °F 51.1 °F 72% 30.10 in 10.0 mi North 16.1 mph 23.0 mph N/A   Overcast
10:15 AM 60.1 °F 50.0 °F 69% 30.11 in 10.0 mi North 15.0 mph 23.0 mph N/A   Overcast
10:25 AM 60.1 °F 50.0 °F 69% 30.13 in 10.0 mi North 11.5 mph 20.7 mph N/A   Overcast
10:50 AM 60.8 °F 48.2 °F 63% 30.12 in 10.0 mi North 12.7 mph 23.0 mph N/A   Overcast
10:53 AM 61.0 °F 48.9 °F 64% 30.12 in 10.0 mi NNW 11.5 mph 23.0 mph N/A   Mostly Cloudy
11:30 AM 60.1 °F 46.9 °F 62% 30.12 in 10.0 mi NNW 13.8 mph 21.9 mph N/A   Mostly Cloudy
11:48 AM 60.8 °F 46.4 °F 59% 30.12 in 10.0 mi NNW 13.8 mph 20.7 mph N/A   Mostly Cloudy
11:53 AM 61.0 °F 48.0 °F 62% 30.12 in 10.0 mi NNW 13.8 mph 20.7 mph N/A   Mostly Cloudy
12:06 PM 61.0 °F 46.9 °F 60% 30.11 in 10.0 mi NNW 15.0 mph 20.7 mph N/A   Mostly Cloudy
12:53 PM 61.0 °F 46.0 °F 58% 30.10 in 10.0 mi NNW 16.1 mph 23.0 mph N/A   Partly Cloudy
1:53 PM 61.0 °F 45.0 °F 56% 30.08 in 10.0 mi NNW 16.1 mph - N/A   Clear
2:53 PM 61.0 °F 45.0 °F 56% 30.07 in 10.0 mi North 17.3 mph 27.6 mph N/A   Clear
3:53 PM 61.0 °F 45.0 °F 56% 30.07 in 10.0 mi NNW 19.6 mph 28.8 mph N/A   Clear
4:53 PM 60.1 °F 44.1 °F 55% 30.09 in 10.0 mi NNW 16.1 mph 27.6 mph N/A   Clear
5:53 PM 59.0 °F 44.1 °F 58% 30.11 in 10.0 mi NNW 15.0 mph 24.2 mph N/A   Clear
6:53 PM 59.0 °F 43.0 °F 55% 30.13 in 10.0 mi NNW 16.1 mph 23.0 mph N/A   Clear
7:53 PM 59.0 °F 44.1 °F 58% 30.14 in 10.0 mi NNW 12.7 mph 21.9 mph N/A   Partly Cloudy
8:53 PM 57.9 °F 42.1 °F 56% 30.15 in 10.0 mi NNW 10.4 mph - N/A   Clear
9:53 PM 57.9 °F 37.9 °F 47% 30.17 in 10.0 mi North 10.4 mph - N/A   Clear
10:53 PM 57.0 °F 39.9 °F 53% 30.17 in 10.0 mi North 10.4 mph - N/A   Clear
11:53 PM 55.9 °F 39.9 °F 55% 30.15 in 10.0 mi NNW 6.9 mph - N/A   Clear